Met observations

Date (UTC) Wind direction m/s kts. Vis. * Weather * Cloud * Temperature (°C) Dew point (°C) Air pressure (Hp)
05-04 01:04 9 17 VIS 10 km FEW CB 2200ft SCT 3500ft 6.3 5.4 1004.1
05-04 00:54 9 18 VIS 10 km FEW CB 2200ft SCT 3500ft 6.1 5.1 1004.0
05-04 00:44 7 14 VIS 10 km FEW CB 2200ft SCT 3500ft 6.2 5.2 1004.1
05-04 00:34 8 15 VIS 10 km FEW CB 2200ft SCT 3500ft 6.1 5.2 1004.1
05-04 00:24 8 15 VIS 10 km FEW CB 2200ft SCT 3500ft 5.8 5.0 1004.2
05-04 00:14 6 11 VIS 10 km FEW CB 2200ft SCT 3500ft 5.7 4.9 1004.2
05-04 00:04 6 11 VIS 10 km FEW CB 2200ft SCT 3500ft 5.7 4.9 1004.2
04-04 23:54 8 16 VIS 10 km FEW CB 2200ft SCT 3500ft 5.6 4.8 1004.5
04-04 23:44 6 12 VIS 10 km FEW CB 2200ft SCT 3500ft 5.6 4.8 1004.6
04-04 23:34 6 12 VIS 10 km FEW CB 2200ft SCT 3500ft 5.6 4.8 1004.6
04-04 23:24 8 15 VIS 10 km FEW CB 2200ft SCT 3500ft 5.6 4.7 1004.6
04-04 23:14 9 17 VIS 10 km FEW CB 2200ft SCT 3500ft 5.5 4.6 1004.6
04-04 23:04 6 11 VIS 10 km FEW CB 2200ft SCT 3500ft 5.5 4.7 1004.7
04-04 22:54 8 15 VIS 10 km FEW CB 2200ft SCT 3500ft 5.4 4.6 1004.7
04-04 22:44 8 16 VIS 10 km FEW CB 2200ft SCT 3500ft 5.3 4.6 1004.7
04-04 22:34 7 14 VIS 10 km FEW CB 2200ft SCT 3500ft 5.3 4.6 1004.7
04-04 22:24 9 17 VIS 10 km FEW CB 2200ft SCT 3500ft 5.2 4.5 1004.7
04-04 22:14 8 15 VIS 10 km FEW CB 2200ft SCT 3500ft 4.9 4.2 1004.9
04-04 22:04 8 16 VIS 10 km FEW CB 2200ft SCT 3500ft 4.8 3.9 1004.8
04-04 21:54 8 16 VIS 10 km FEW CB 2200ft SCT 3500ft 4.8 3.9 1004.9
04-04 21:44 6 12 VIS 10 km FEW CB 2200ft SCT 3500ft 4.8 3.9 1005.0
04-04 21:34 7 13 VIS 10 km FEW CB 2200ft SCT 3500ft 4.7 3.9 1005.0
04-04 21:24 8 15 VIS 10 km FEW CB 2200ft SCT 3500ft 4.6 3.9 1005.0
04-04 21:14 7 14 VIS 10 km FEW CB 2200ft SCT 3500ft 4.6 3.9 1005.0
04-04 21:04 8 16 VIS 10 km FEW CB 2200ft SCT 3500ft 4.6 3.9 1005.1
04-04 20:54 8 16 VIS 10 km FEW CB 2200ft SCT 3500ft 4.5 3.8 1005.0
04-04 20:44 8 16 VIS 10 km FEW CB 2200ft SCT 3500ft 4.5 3.8 1005.0
04-04 20:34 9 17 VIS 10 km FEW CB 2200ft SCT 3500ft 4.5 3.8 1005.0
04-04 20:24 8 15 VIS 10 km FEW CB 2200ft SCT 3500ft 4.4 3.8 1005.0
04-04 20:14 7 14 VIS 10 km FEW CB 2200ft SCT 3500ft 4.3 3.5 1005.1
04-04 20:04 8 15 VIS 10 km FEW CB 2200ft SCT 3500ft 4.2 3.2 1005.1
04-04 19:54 9 17 VIS 10 km FEW CB 2200ft SCT 3500ft 4.2 3.1 1005.3
04-04 19:44 9 18 VIS 10 km FEW CB 2200ft SCT 3500ft 4.2 3.1 1005.3
04-04 19:34 9 18 VIS 10 km FEW CB 2200ft SCT 3500ft 4.1 2.9 1005.4
04-04 19:24 10 20 VIS 10 km FEW CB 2200ft SCT 3500ft 4.0 2.7 1005.3
04-04 19:14 11 21 VIS 10 km FEW CB 2200ft SCT 3500ft 4.0 2.6 1005.4
04-04 19:04 11 21 VIS 10 km FEW CB 2200ft SCT 3500ft 3.8 2.2 1005.6
04-04 18:54 11 22 VIS 10 km FEW CB 2200ft SCT 3500ft 3.7 1.7 1005.7
04-04 18:44 10 20 VIS 10 km FEW CB 2200ft SCT 3500ft 3.6 1.3 1005.8
04-04 18:34 12 23 VIS 10 km FEW CB 2200ft SCT 3500ft 3.6 1.0 1005.8
04-04 18:24 12 23 VIS 10 km FEW CB 2200ft SCT 3500ft 3.5 0.8 1005.8
04-04 18:14 14 27 VIS 10 km FEW CB 2200ft SCT 3500ft 3.4 0.6 1005.8
04-04 18:04 14 28 VIS 10 km FEW CB 2200ft SCT 3500ft 3.4 0.5 1005.8
04-04 17:54 14 27 VIS 10 km FEW CB 2200ft SCT 3500ft 3.4 0.4 1005.7
04-04 17:44 13 25 VIS 10 km FEW CB 2200ft SCT 3500ft 3.2 0.3 1005.9
04-04 17:34 15 29 VIS 10 km FEW CB 2200ft SCT 3500ft 3.3 0.1 1005.8
04-04 17:24 15 29 VIS 10 km FEW CB 2200ft SCT 3500ft 3.1 0.0 1005.9
04-04 17:14 16 31 VIS 10 km FEW CB 2200ft SCT 3500ft 3.0 0.0 1006.0
04-04 17:04 16 32 VIS 10 km FEW CB 2200ft SCT 3500ft 3.0 -0.1 1006.2
04-04 16:54 16 32 VIS 10 km FEW CB 2200ft SCT 3500ft 2.7 -0.1 1006.1
04-04 16:44 16 31 VIS 10 km FEW CB 2200ft SCT 3500ft 2.8 -0.2 1006.2
04-04 16:34 16 31 VIS 10 km FEW CB 2200ft SCT 3500ft 2.6 -0.2 1006.4
04-04 16:24 17 34 VIS 10 km FEW CB 2200ft SCT 3500ft 2.4 -0.3 1006.4
04-04 16:14 17 33 VIS 10 km FEW CB 2200ft SCT 3500ft 2.4 -0.6 1006.6
04-04 16:04 16 32 VIS 10 km FEW CB 2200ft SCT 3500ft 2.4 -0.8 1006.6
04-04 15:54 17 34 VIS 10 km FEW CB 2200ft SCT 3500ft 2.5 -0.8 1006.6
04-04 15:44 17 34 VIS 10 km FEW CB 2200ft SCT 3500ft 2.4 -0.9 1006.8
04-04 15:34 16 32 VIS 10 km FEW CB 2200ft SCT 3500ft 2.5 -0.9 1006.7
04-04 15:24 17 33 VIS 10 km FEW CB 2200ft SCT 3500ft 2.6 -1.1 1006.8
04-04 15:14 17 34 VIS 10 km FEW CB 2200ft SCT 3500ft 2.5 -1.2 1006.7
04-04 15:04 18 35 VIS 10 km FEW CB 2200ft SCT 3500ft 2.3 -1.0 1006.8
04-04 14:54 18 35 VIS 10 km FEW CB 2200ft SCT 3500ft 2.6 -1.3 1006.9
04-04 14:44 17 33 VIS 10 km FEW CB 2200ft SCT 3500ft 2.6 -1.1 1006.8
04-04 14:34 15 30 VIS 10 km FEW CB 2200ft SCT 3500ft 2.6 -1.5 1006.9
04-04 14:24 19 36 VIS 10 km FEW CB 2200ft SCT 3500ft 2.4 -1.6 1007.1
04-04 14:14 16 32 VIS 10 km FEW CB 2200ft SCT 3500ft 2.3 -1.6 1007.2
04-04 14:04 17 33 VIS 10 km FEW CB 2200ft SCT 3500ft 2.3 -1.8 1007.3
04-04 13:54 16 31 VIS 10 km FEW CB 2200ft SCT 3500ft 2.3 -1.6 1007.5
04-04 13:44 15 29 VIS 10 km FEW CB 2200ft SCT 3500ft 2.4 -1.9 1007.4
04-04 13:34 15 29 VIS 10 km FEW CB 2200ft SCT 3500ft 2.0 -1.6 1007.5
04-04 13:24 16 31 VIS 10 km FEW CB 2200ft SCT 3500ft 1.9 -1.4 1007.6
04-04 13:14 15 29 VIS 10 km FEW CB 2200ft SCT 3500ft 1.8 -1.6 1007.5
04-04 13:04 15 29 VIS 10 km FEW CB 2200ft SCT 3500ft 1.6 -1.4 1007.8
04-04 12:54 15 30 VIS 10 km FEW CB 2200ft SCT 3500ft 1.4 -1.4 1007.7
04-04 12:44 16 31 VIS 10 km FEW CB 2200ft SCT 3500ft 1.5 -1.8 1007.9
04-04 12:34 15 30 VIS 10 km FEW CB 2200ft SCT 3500ft 1.2 -2.0 1008.1
04-04 12:24 16 31 VIS 10 km FEW CB 2200ft SCT 3500ft 1.3 -2.3 1008.1
04-04 12:14 14 28 VIS 10 km FEW CB 2200ft SCT 3500ft 1.2 -2.3 1008.1
04-04 12:04 11 22 VIS 10 km FEW CB 2200ft SCT 3500ft 0.9 -2.2 1008.3
04-04 11:54 13 25 VIS 10 km FEW CB 2200ft SCT 3500ft 0.9 -2.1 1008.4
04-04 11:44 14 27 VIS 10 km FEW CB 2200ft SCT 3500ft 0.9 -2.1 1008.5
04-04 11:34 12 23 VIS 10 km FEW CB 2200ft SCT 3500ft 0.8 -2.3 1008.5
04-04 11:24 13 25 VIS 10 km FEW CB 2200ft SCT 3500ft 0.6 -2.4 1008.6
04-04 11:14 13 26 VIS 10 km FEW CB 2200ft SCT 3500ft 0.5 -2.4 1008.7
04-04 11:04 12 23 VIS 10 km FEW CB 2200ft SCT 3500ft 0.6 -2.6 1008.6
04-04 10:54 11 22 VIS 10 km FEW CB 2200ft SCT 3500ft 0.5 -2.6 1008.9
04-04 10:44 13 25 VIS 10 km FEW CB 2200ft SCT 3500ft 0.5 -2.9 1009.0
04-04 10:34 12 24 VIS 10 km FEW CB 2200ft SCT 3500ft 0.3 -2.7 1009.1
04-04 10:24 11 22 VIS 10 km FEW CB 2200ft SCT 3500ft 0.2 -3.0 1009.1
04-04 10:14 11 21 VIS 10 km FEW CB 2200ft SCT 3500ft 0.1 -3.0 1009.3
04-04 10:04 9 18 VIS 10 km FEW CB 2200ft SCT 3500ft 0.1 -3.1 1009.4
04-04 09:54 10 20 VIS 10 km FEW CB 2200ft SCT 3500ft 0.1 -3.1 1009.4
04-04 09:44 11 22 VIS 10 km FEW CB 2200ft SCT 3500ft 0.1 -3.4 1009.5
04-04 09:34 9 18 VIS 10 km FEW CB 2200ft SCT 3500ft 0.0 -3.4 1009.6
04-04 09:24 10 19 VIS 10 km FEW CB 2200ft SCT 3500ft -0.1 -3.5 1009.7
04-04 09:14 10 20 VIS 10 km FEW CB 2200ft SCT 3500ft -0.1 -3.8 1009.7
04-04 09:04 9 18 VIS 10 km FEW CB 2200ft SCT 3500ft -0.1 -4.3 1009.7
04-04 08:54 8 15 VIS 10 km FEW CB 2200ft SCT 3500ft -0.2 -4.3 1009.7
04-04 08:44 7 14 VIS 10 km FEW CB 2200ft SCT 3500ft -0.3 -4.4 1009.7
04-04 08:34 8 16 VIS 10 km FEW CB 2200ft SCT 3500ft -0.5 -4.0 1009.7
04-04 08:24 7 14 VIS 10 km FEW CB 2200ft SCT 3500ft -0.6 -3.9 1009.8
04-04 08:14 8 16 VIS 10 km FEW CB 2200ft SCT 3500ft -0.6 -4.0 1009.8
04-04 08:04 9 17 VIS 10 km FEW CB 2200ft SCT 3500ft -0.8 -3.8 1009.8
04-04 07:54 9 17 VIS 10 km FEW CB 2200ft SCT 3500ft -0.9 -4.0 1009.9
04-04 07:44 8 16 VIS 10 km FEW CB 2200ft SCT 3500ft -0.7 -4.3 1009.9
04-04 07:34 8 15 VIS 10 km FEW CB 2200ft SCT 3500ft -0.7 -4.4 1009.9
04-04 07:24 9 17 VIS 10 km FEW CB 2200ft SCT 3500ft -0.5 -4.9 1009.9
04-04 07:14 8 16 VIS 10 km FEW CB 2200ft SCT 3500ft -0.4 -5.0 1009.9
04-04 07:04 7 13 VIS 10 km FEW CB 2200ft SCT 3500ft -0.2 -5.5 1009.8
04-04 06:54 9 17 VIS 10 km FEW CB 2200ft SCT 3500ft -0.1 -5.7 1009.8
04-04 06:44 8 16 VIS 10 km FEW CB 2200ft SCT 3500ft 0.1 -6.2 1009.7
04-04 06:34 9 18 VIS 10 km FEW CB 2200ft SCT 3500ft 0.0 -6.2 1009.7
04-04 06:24 10 20 VIS 10 km FEW CB 2200ft SCT 3500ft 0.0 -6.2 1009.5
04-04 06:14 10 20 VIS 10 km FEW CB 2200ft SCT 3500ft 0.0 -6.4 1009.5
04-04 06:04 9 18 VIS 10 km FEW CB 2200ft SCT 3500ft 0.0 -6.3 1009.6
04-04 05:54 9 17 VIS 10 km FEW CB 2200ft SCT 3500ft 0.0 -6.3 1009.5
04-04 05:44 7 13 VIS 10 km FEW CB 2200ft SCT 3500ft -0.1 -6.3 1009.6
04-04 05:34 6 11 VIS 10 km FEW CB 2200ft SCT 3500ft -0.2 -6.2 1009.7
04-04 05:24 8 15 VIS 10 km FEW CB 2200ft SCT 3500ft -0.2 -6.1 1009.8
04-04 05:14 6 12 VIS 10 km FEW CB 2200ft SCT 3500ft -0.3 -6.0 1009.8
04-04 05:04 7 13 VIS 10 km FEW CB 2200ft SCT 3500ft -0.3 -5.7 1009.9
04-04 04:54 7 13 VIS 10 km FEW CB 2200ft SCT 3500ft -0.4 -6.0 1010.0
04-04 04:44 6 12 VIS 10 km FEW CB 2200ft SCT 3500ft -0.2 -6.6 1010.1
04-04 04:34 8 15 VIS 10 km FEW CB 2200ft SCT 3500ft -0.3 -6.3 1010.2
04-04 04:24 6 11 VIS 10 km FEW CB 2200ft SCT 3500ft -0.3 -6.5 1010.4
04-04 04:14 6 12 VIS 10 km FEW CB 2200ft SCT 3500ft -0.7 -6.3 1010.5
04-04 04:04 6 11 VIS 10 km FEW CB 2200ft SCT 3500ft -0.8 -6.6 1010.4
04-04 03:54 5 10 VIS 10 km FEW CB 2200ft SCT 3500ft -0.8 -6.7 1010.5
04-04 03:44 6 12 VIS 10 km FEW CB 2200ft SCT 3500ft -0.8 -6.6 1010.6
04-04 03:34 7 13 VIS 10 km FEW CB 2200ft SCT 3500ft -1.0 -6.4 1010.7
04-04 03:24 6 12 VIS 10 km FEW CB 2200ft SCT 3500ft -1.2 -6.4 1010.6
04-04 03:14 7 13 VIS 10 km FEW CB 2200ft SCT 3500ft -1.4 -6.4 1010.7
04-04 03:04 7 13 VIS 10 km FEW CB 2200ft SCT 3500ft -1.4 -6.4 1010.9
04-04 02:54 7 13 VIS 10 km FEW CB 2200ft SCT 3500ft -1.5 -6.7 1010.9
04-04 02:44 7 13 VIS 10 km FEW CB 2200ft SCT 3500ft -1.6 -7.3 1011.0
04-04 02:34 7 13 VIS 10 km FEW CB 2200ft SCT 3500ft -1.8 -8.1 1011.0
04-04 02:24 3 05 VIS 10 km FEW CB 2200ft SCT 3500ft -1.2 -8.7 1011.0
04-04 02:14 0 00 VIS 10 km FEW CB 2200ft SCT 3500ft -1.0 -8.8 1011.0
04-04 02:04 2 03 VIS 10 km FEW CB 2200ft SCT 3500ft -1.4 -8.3 1011.1
04-04 01:54 1 02 VIS 10 km FEW CB 2200ft SCT 3500ft -1.5 -8.2 1011.1
04-04 01:44 0 00 VIS 10 km FEW CB 2200ft SCT 3500ft -1.4 -8.1 1011.1
04-04 01:34 0 00 VIS 10 km FEW CB 2200ft SCT 3500ft -2.6 -7.7 1011.3
04-04 01:24 1 02 VIS 10 km FEW CB 2200ft SCT 3500ft -2.6 -7.8 1011.3

Met data is updated every half hour and is for information only.
* Visibility, weather and cloud values are updated during the airport’s service hours only.
Flight planning documentation is available on opmet.dmi.dk.
For meteorological abbreviations, click here